QB50P2

Last updated on Thu Nov 21 2024 00:03:39 GMT+0000 (Coordinated Universal Time)

1 40032U 14033Y 24325.37588427 .00012880 00000+0 95999-3 0 9992 2 40032 98.0196 282.5061 0008797 330.9036 29.1697 15.03008243566099
UTC large
Height (km)
Speed (km/s)
/
Latitude / Longitude
Inclination (degrees)
Orbital Period (minutes)
Azimuth
Elevation
Range (km)
Doppler Factor

Next 0 passes for location: London (51.5072 / 0.1276)

Sorry there are no passes over London.